When you browse on this site, cookies collect data to enhance your experience and personalize the content and advertising you see.
Visit our Privacy Policy to learn more. By continuing to use the site, you agree to this use of cookies and data.
  • En España
  • Lista de países
  • Para 7 días
  • Temperatura del agua
  • Mapa Satelital
  • El tiempo en el mapa
  • Informadores
  • user-avatar
    Iniciar sesión

    Tiempo cada hora Andora

    Hoy, 16 Diciembre, Domingo

    Tiempo Temperatura Precipitaciones Viento Presión Humedad
    00:00 +3°C° 0 mm 1 mps 624 mmHg 89%
    01:00 +3°C° 0.2 mm 1 mps 623 mmHg 90%
    02:00 +3°C° 0.2 mm 1 mps 623 mmHg 91%
    03:00 +3°C° 0.2 mm 1 mps 623 mmHg 93%
    04:00 +3°C° 0.2 mm 1 mps 623 mmHg 93%
    05:00 +3°C° 0.2 mm 1 mps 623 mmHg 93%
    06:00 +2°C° 0 mm 0 mps 622 mmHg 93%
    07:00 +3°C° 1 mm 1 mps 623 mmHg 93%
    08:00 +3°C° 1 mm 1 mps 623 mmHg 94%
    09:00 +3°C° 1 mm 1 mps 623 mmHg 94%
    10:00 +3°C° 1 mm 2 mps 623 mmHg 94%
    11:00 +3°C° 1 mm 2 mps 623 mmHg 94%
    12:00 +3°C° 1 mm 2 mps 623 mmHg 94%
    13:00 +3°C° 0.3 mm 2 mps 622 mmHg 93%
    14:00 +3°C° 0.3 mm 2 mps 622 mmHg 93%
    15:00 +3°C° 0.3 mm 2 mps 622 mmHg 93%
    16:00 +2°C° 0.4 mm 2 mps 622 mmHg 94%
    17:00 +1°C° 0.4 mm 2 mps 622 mmHg 94%
    18:00 0°C° 0.4 mm 3 mps 622 mmHg 95%
    19:00 -1°C° 0.4 mm 3 mps 623 mmHg 93%
    20:00 -1°C° 0.4 mm 3 mps 623 mmHg 90%
    21:00 -1°C° 0.4 mm 3 mps 623 mmHg 88%
    22:00 -2°C° 0 mm 3 mps 624 mmHg 87%
    23:00 -4°C° 0 mm 3 mps 624 mmHg 87%

    Mañana, 17 Diciembre, Lunes

    Tiempo Temperatura Precipitaciones Viento Presión Humedad
    00:00 -5°C° 0 mm 3 mps 624 mmHg 86%
    01:00 -5°C° 0 mm 3 mps 624 mmHg 85%
    02:00 -5°C° 0 mm 3 mps 624 mmHg 84%
    03:00 -6°C° 0 mm 3 mps 625 mmHg 83%
    04:00 -6°C° 0 mm 3 mps 625 mmHg 82%
    05:00 -6°C° 0 mm 3 mps 625 mmHg 81%
    06:00 -6°C° 0 mm 3 mps 626 mmHg 81%
    07:00 -5°C° 0 mm 3 mps 627 mmHg 79%
    08:00 -4°C° 0 mm 3 mps 627 mmHg 77%
    09:00 -2°C° 0 mm 3 mps 628 mmHg 75%
    10:00 -1°C° 0 mm 2 mps 629 mmHg 69%
    11:00 +1°C° 0 mm 2 mps 629 mmHg 63%
    12:00 +3°C° 0 mm 2 mps 630 mmHg 57%
    13:00 +4°C° 0 mm 1 mps 630 mmHg 59%
    14:00 +3°C° 0 mm 1 mps 630 mmHg 61%
    15:00 +3°C° 0 mm 1 mps 630 mmHg 63%
    16:00 +2°C° 0 mm 1 mps 629 mmHg 67%
    17:00 0°C° 0 mm 1 mps 628 mmHg 71%
    18:00 -1°C° 0 mm 1 mps 628 mmHg 75%
    19:00 -1°C° 0 mm 1 mps 628 mmHg 73%
    20:00 -1°C° 0 mm 1 mps 628 mmHg 70%
    21:00 -1°C° 0 mm 1 mps 628 mmHg 68%
    22:00 -1°C° 0 mm 1 mps 628 mmHg 69%
    23:00 -1°C° 0 mm 1 mps 628 mmHg 70%

    Pasado mañana, 18 Diciembre, Martes

    Tiempo Temperatura Precipitaciones Viento Presión Humedad
    00:00 -1°C° 0 mm 1 mps 627 mmHg 71%
    01:00 -2°C° 0 mm 1 mps 627 mmHg 70%
    02:00 -2°C° 0 mm 1 mps 626 mmHg 70%
    03:00 -2°C° 0 mm 1 mps 626 mmHg 69%
    04:00 -2°C° 0 mm 1 mps 626 mmHg 67%
    05:00 -4°C° 0 mm 2 mps 625 mmHg 65%
    06:00 -3°C° 0 mm 2 mps 625 mmHg 63%
    07:00 -2°C° 0 mm 2 mps 625 mmHg 59%
    08:00 -1°C° 0 mm 2 mps 626 mmHg 56%
    09:00 +1°C° 0 mm 2 mps 626 mmHg 53%
    10:00 +2°C° 0 mm 2 mps 626 mmHg 51%
    11:00 +2°C° 0 mm 3 mps 626 mmHg 49%
    12:00 +4°C° 0 mm 3 mps 626 mmHg 47%
    13:00 +3°C° 0 mm 3 mps 626 mmHg 50%
    14:00 +3°C° 0 mm 3 mps 625 mmHg 53%
    15:00 +3°C° 0 mm 2 mps 625 mmHg 56%
    16:00 +2°C° 0 mm 2 mps 624 mmHg 58%
    17:00 +1°C° 0 mm 2 mps 624 mmHg 60%
    18:00 -1°C° 0 mm 2 mps 624 mmHg 63%
    19:00 -1°C° 0 mm 2 mps 624 mmHg 63%
    20:00 -1°C° 0 mm 2 mps 624 mmHg 64%
    21:00 -1°C° 0 mm 2 mps 624 mmHg 64%
    22:00 +1°C° 0 mm 1 mps 624 mmHg 67%
    23:00 +1°C° 0 mm 1 mps 624 mmHg 70%

    19 Diciembre, Miércoles

    Tiempo Temperatura Precipitaciones Viento Presión Humedad
    00:00 +1°C° 0 mm 1 mps 624 mmHg 73%
    01:00 +1°C° 0.1 mm 1 mps 624 mmHg 75%
    02:00 +1°C° 0.1 mm 1 mps 624 mmHg 77%
    03:00 +1°C° 0.1 mm 1 mps 624 mmHg 78%
    04:00 0°C° 0 mm 1 mps 623 mmHg 81%
    05:00 -1°C° 0 mm 0 mps 623 mmHg 84%
    06:00 -2°C° 0 mm 0 mps 623 mmHg 87%
    07:00 -1°C° 0 mm 0 mps 623 mmHg 85%
    08:00 0°C° 0 mm 0 mps 624 mmHg 83%
    09:00 +1°C° 0 mm 1 mps 625 mmHg 81%
    10:00 +2°C° 0 mm 1 mps 625 mmHg 76%
    11:00 +3°C° 0 mm 1 mps 625 mmHg 70%
    12:00 +4°C° 0 mm 1 mps 625 mmHg 65%
    13:00 +3°C° 0 mm 2 mps 625 mmHg 66%
    14:00 +3°C° 0 mm 2 mps 625 mmHg 67%
    15:00 +2°C° 0 mm 2 mps 625 mmHg 67%
    16:00 +1°C° 0 mm 2 mps 625 mmHg 73%
    17:00 -2°C° 0 mm 2 mps 625 mmHg 78%
    18:00 -1°C° 0 mm 1 mps 624 mmHg 83%
    19:00 -2°C° 0 mm 1 mps 624 mmHg 81%
    20:00 -2°C° 0 mm 1 mps 625 mmHg 80%
    21:00 -2°C° 0 mm 1 mps 625 mmHg 78%
    22:00 -2°C° 0 mm 1 mps 625 mmHg 77%
    23:00 -2°C° 0 mm 1 mps 625 mmHg 76%

    20 Diciembre, Jueves

    Tiempo Temperatura Precipitaciones Viento Presión Humedad
    00:00 -2°C° 0 mm 1 mps 625 mmHg 74%
    01:00 -2°C° 0 mm 1 mps 625 mmHg 74%
    02:00 -2°C° 0 mm 1 mps 625 mmHg 74%
    03:00 -2°C° 0 mm 1 mps 625 mmHg 73%
    04:00 -2°C° 0 mm 1 mps 625 mmHg 73%
    05:00 -2°C° 0 mm 1 mps 625 mmHg 72%
    06:00 -4°C° 0 mm 2 mps 626 mmHg 72%
    07:00 -1°C° 0 mm 1 mps 626 mmHg 70%
    08:00 0°C° 0 mm 1 mps 627 mmHg 69%
    09:00 +1°C° 0 mm 1 mps 628 mmHg 67%
    10:00 +2°C° 0 mm 1 mps 628 mmHg 63%
    11:00 +3°C° 0 mm 1 mps 629 mmHg 58%
    12:00 +5°C° 0 mm 1 mps 629 mmHg 54%
    13:00 +4°C° 0 mm 1 mps 629 mmHg 57%
    14:00 +4°C° 0 mm 1 mps 628 mmHg 60%
    15:00 +4°C° 0 mm 1 mps 628 mmHg 63%
    16:00 +2°C° 0 mm 1 mps 628 mmHg 69%
    17:00 0°C° 0 mm 1 mps 627 mmHg 75%
    18:00 -1°C° 0 mm 1 mps 627 mmHg 81%
    19:00 -1°C° 0 mm 1 mps 627 mmHg 80%
    20:00 -1°C° 0 mm 1 mps 627 mmHg 78%
    21:00 -1°C° 0 mm 1 mps 627 mmHg 77%
    22:00 -1°C° 0 mm 1 mps 627 mmHg 76%
    23:00 -1°C° 0 mm 1 mps 627 mmHg 74%

    21 Diciembre, Viernes

    Tiempo Temperatura Precipitaciones Viento Presión Humedad
    00:00 -1°C° 0 mm 1 mps 627 mmHg 73%
    01:00 0°C° 0 mm 1 mps 627 mmHg 71%
    02:00 0°C° 0 mm 1 mps 627 mmHg 69%
    03:00 +1°C° 0 mm 1 mps 627 mmHg 67%
    04:00 +1°C° 0 mm 1 mps 627 mmHg 67%
    05:00 +1°C° 0 mm 1 mps 627 mmHg 66%
    06:00 +1°C° 0 mm 1 mps 627 mmHg 66%
    07:00 +2°C° 0.1 mm 1 mps 628 mmHg 64%
    08:00 +3°C° 0.1 mm 1 mps 628 mmHg 63%
    09:00 +4°C° 0.1 mm 1 mps 629 mmHg 61%
    10:00 +5°C° 0.1 mm 1 mps 629 mmHg 63%
    11:00 +6°C° 0.1 mm 1 mps 630 mmHg 65%
    12:00 +8°C° 0.1 mm 1 mps 630 mmHg 66%
    13:00 +8°C° 0 mm 1 mps 630 mmHg 70%
    14:00 +7°C° 0 mm 1 mps 630 mmHg 73%
    15:00 +7°C° 0 mm 1 mps 630 mmHg 77%
    16:00 +6°C° 0 mm 1 mps 630 mmHg 80%
    17:00 +5°C° 0 mm 1 mps 630 mmHg 83%
    18:00 +4°C° 0 mm 1 mps 630 mmHg 86%
    19:00 +4°C° 0 mm 1 mps 630 mmHg 86%
    20:00 +4°C° 0 mm 1 mps 630 mmHg 85%
    21:00 +3°C° 0 mm 1 mps 630 mmHg 85%
    22:00 +3°C° 0 mm 1 mps 630 mmHg 84%
    23:00 +3°C° 0 mm 1 mps 630 mmHg 83%
    Mostrar más